Tracking 30995 objects as of 5-Jul-2025
HD Live streaming from Space Station
objects crossing your sky now

STARLINK-31549

Track STARLINK-31549 now!
10-day predictions
STARLINK-31549 is classified as:


NORAD ID: 59360
Int'l Code: 2024-060N
Perigee: 489.4 km
Apogee: 491.0 km
Inclination: 43.0 °
Period: 94.3 minutes
Semi major axis: 6861 km
RCS: Unknown
Launch date: March 31, 2024
Source: United States (US)
Launch site: AIR FORCE EASTERN TEST RANGE (AFETR)
Your satellite tracking list
Your tracking list is empty




NASA's NSSDC Master Catalog

Two Line Element Set (TLE):
1 59360U 24060N   25186.44718476 -.00000445  00000-0 -66440-5 0  9998
2 59360  42.9995 215.8619 0001171 273.3297  86.7421 15.27576998 72251
Source of the keplerian elements: AFSPC